Location: Eurasberg
(48.3353°N, 11.0839°E)
Time: 15:47:10
(UTC+00:00)

CENTAUR R/B - Pass Details

Date: 18 January 2026
Orbit: 629 x 1552 km, 63.4° (Epoch: 18 February)

Event Time Altitude Azimuth Distance (km) Brightness Sun altitude
Rises 05:20:10 0° 204° (SSW) 3,181 5.1 -16.1°
Reaches altitude 10° 05:22:22 10° 200° (SSW) 2,354 4.5 -15.8°
Maximum altitude 05:27:40 59° 122° (ESE) 1,058 3.0 -14.9°
Drops below altitude 10° 05:34:25 10° 45° (NE) 2,966 5.4 -13.8°
Sets 05:37:28 0° 43° (NE) 4,080 6.1 -13.4°
